Location: Cahas Mountain Overlook
(37.0833°N, 80.1000°W)
Time: 19:04:29
(UTC-04:00)

SR - Pass Details

Date: 09 February 2026
Orbit: 572 x 849 km, 66.7° (Epoch: 12 March)

Event Time Altitude Azimuth Distance (km) Brightness Sun altitude
Rises 07:35:13 0° 239° (WSW) 2,764 ? 2.9°
Reaches altitude 10° 07:37:47 10° 255° (WSW) 1,873 ? 3.4°
Maximum altitude 07:41:06 22° 307° (NW) 1,269 ? 4.0°
Drops below altitude 10° 07:44:31 10° 0° (N) 1,929 ? 4.6°
Sets 07:47:13 0° 16° (NNE) 2,870 ? 5.1°
